Satellite-Ground Cal/Val Region Overpasses Predictions

Prediction of Satellite NPP Overpassing Cal/Val Region: PacNW

Region Location: (Latitude: 10.00, Longitude: 139.50) to (Latitude: 22.70, Longitude: 165.60).

Table of predicted overpasses for the next 14.0 days since TLE Epoch: 11/29/2016
Interval Starting Time Starting Location Ending Time Ending Location
1 11/30/2016 02:20:56 ( 10.01, 164.54) 11/30/2016 02:24:32 ( 22.69, 161.53)
2 11/30/2016 14:52:49 ( 22.64, 161.76) 11/30/2016 14:56:24 ( 10.03, 158.76)
3 12/01/2016 03:43:24 ( 10.05, 143.91) 12/01/2016 03:46:59 ( 22.67, 140.91)
4 12/01/2016 14:34:51 ( 18.92, 165.60) 12/01/2016 14:37:22 ( 10.05, 163.52)
5 12/01/2016 16:15:17 ( 22.67, 141.14) 12/01/2016 16:17:12 ( 15.92, 139.51)
6 12/02/2016 03:24:22 ( 10.02, 148.68) 12/02/2016 03:27:57 ( 22.64, 145.68)
7 12/02/2016 15:56:15 ( 22.70, 145.91) 12/02/2016 15:59:51 ( 10.02, 142.89)
8 12/03/2016 03:05:20 ( 10.05, 153.43) 12/03/2016 03:08:55 ( 22.68, 150.43)
9 12/03/2016 15:37:13 ( 22.66, 150.66) 12/03/2016 15:40:48 ( 10.05, 147.66)
10 12/04/2016 02:46:18 ( 10.02, 158.19) 12/04/2016 02:49:53 ( 22.65, 155.19)
11 12/04/2016 15:18:11 ( 22.69, 155.42) 12/04/2016 15:21:47 ( 10.01, 152.41)
12 12/05/2016 02:27:16 ( 10.06, 162.94) 12/05/2016 02:30:51 ( 22.68, 159.94)
13 12/05/2016 14:59:09 ( 22.66, 160.17) 12/05/2016 15:02:44 ( 10.04, 157.17)
14 12/06/2016 02:10:47 ( 19.02, 165.60) 12/06/2016 02:11:49 ( 22.66, 164.70)
15 12/06/2016 03:49:44 ( 10.04, 142.33) 12/06/2016 03:53:07 ( 21.96, 139.50)
16 12/06/2016 14:40:07 ( 22.69, 164.93) 12/06/2016 14:43:43 ( 10.01, 161.92)
17 12/06/2016 16:21:37 ( 22.68, 139.56) 12/06/2016 16:21:40 ( 22.51, 139.51)
18 12/07/2016 03:30:41 ( 10.01, 147.09) 12/07/2016 03:34:17 ( 22.70, 144.07)
19 12/07/2016 16:02:35 ( 22.65, 144.30) 12/07/2016 16:06:10 ( 10.03, 141.31)
20 12/08/2016 03:11:40 ( 10.05, 151.84) 12/08/2016 03:15:15 ( 22.67, 148.84)
21 12/08/2016 15:43:33 ( 22.68, 149.07) 12/08/2016 15:47:08 ( 10.06, 146.07)
22 12/09/2016 02:52:37 ( 10.02, 156.60) 12/09/2016 02:56:12 ( 22.65, 153.60)
23
